Simultaneous Nadir Overpasses (SNOs) Predictions

Prediction of SNOs between METOP-A and TERRA Satellite Orbit:

Table of predicted SNOs for the next 14.0 days since TLE Epoch: 5/3/2015
Index Date (METOP-A) Time (METOP-A) Lat,Lon (METOP-A) SZA (METOP-A ) Date (TERRA) Time (TERRA) Lat,Lon (TERRA) SZA (TERRA ) Distance(km) Time Diff (sec)
1 05/05/2015 14:11:16 81.34, 14.88 68.09 05/05/2015 14:12:24 81.34, 15.01 68.14 2.21 68
2 05/05/2015 15:01:56 -81.34,-177.44 111.88 05/05/2015 15:01:51 -81.34,-177.41 111.89 0.60 5
3 05/08/2015 09:45:37 81.34, 81.65 67.36 05/08/2015 09:46:43 81.34, 81.46 67.37 3.14 66
4 05/08/2015 10:36:18 -81.34,-111.06 112.66 05/08/2015 10:36:10 -81.34,-110.94 112.65 1.98 8
5 05/11/2015 05:19:58 81.34, 147.97 66.61 05/11/2015 05:21:01 81.34, 147.78 66.62 3.10 63
6 05/1
